FENGYUN 1C DEB, 46443

Orbit data source: Space-Track

FENGYUN 1C DEB, 46443 is space debris in SSO originally from a launch on Mon, 10 May 1999 UTC launched from the Taiyaun Space Center, China (TSC). Fengyun 1C debris stems from the Chinese weather satellite Fengyun-1C, which was intentionally destroyed by a Chinese anti-satellite missile in 2007. This event dramatically increased the amount of space debris, with thousands of trackable fragments posing hazards to satellites and human spaceflight. The Fengyun 1C debris cloud has become a focal point in discussions about space sustainability and the need for international regulations to prevent the creation of new debris.

Loading next visibility...
Identifier
46443, 1999-025EYY
Orbit
SSO
Country
Flag of CNCN / PRC
Related business
Manufacturer
Unknown
Mission
Spacecraft
Bus & Motor
Unknown
Mass
Unknown
Launch date (UTC)
1999-05-10 (27 years ago)
Launch vehicle
Unknown
Launch site
Taiyaun Space Center, China (TSC)
Object type
Payload
Rocket body
Debris
Shape & HBR
Unknown shape, 0.1 m
Radar Cross Section
Small (<0.1 m²)

Expand to show TLE details & history
Last TLE update: 1 week ago

TLE from 1 week ago
0 FENGYUN 1C DEB
1 46443U 99025EYY 26100.67024943  .00002505  00000-0  13422-2 0  9996
2 46443  99.2017 175.6020 0095598  24.5140 129.7980 14.11705752612732
Epoch: 2026-04-10T16:05Z
TLE epoch observation values (Epoch: 2026-04-10T16:05:09.550Z)
Latitude
24.53867°
Longitude
-80.3693°
Altitude
901.129 km
Speed
7.381 km/s
True Right ascension
23h 59m 17s
True Declination
24° 24' 42"
Sunlit
Object was in daylight at epoch
Visualization orbit readout
Latitude
Unknown
Longitude
Unknown
Altitude
Unknown
Speed
Unknown
Apparent Right ascension
Unknown
Apparent Declination
Unknown
Sunlit
N/A
Visualization observer readout
Local Sidereal Time
11:15:00
Azimuth
Unknown
Elevation
Unknown
Doppler factor
Unknown
Orbital elements
Apogee altitude
919.841 km
Perigee altitude
781.627 km
Semi-major axis
7,228.871 km
Eccentricity
0.00956
Inclination
99.2017°
RAAN
175.602°
Arg. of periapsis
24.514°
True anomaly
130.63324°
Mean anomaly
129.798°
Eccentric anomaly
130.21626°
Mean motion
3.53132 °/min
Orbital period
101.94 mins
BSTAR
0.0013422
Loading maneuver chart data...
Computing Atmospheric mass density...
Loading historical data...
Loading historical data...
Loading historical data...
Loading historical data...
Loading historical data...
Loading historical data...
Loading historical data...

Documentation

Showing up to 5 results
|